GW5756 Weather Reports


time (UTC)temp
C
wind
direction
speed
KPH
gust
KPH
rain 1hr
cm
rain 24hr
cm
rain mn
cm
humidity
%
barometer
mb
20260510230027 21 110 9.7 30.6 0.00 0.00 0.00 31 1024.2
20260510224511 22 89 9.7 27.4 0.00 0.00 0.00 31 1024.1
20260510223009 22 88 9.7 22.5 0.00 0.00 0.00 32 1024.0
20260510221513 22 95 12.9 22.5 0.00 0.00 0.00 31 1024.0
20260510220020 22 69 17.7 30.6 0.00 0.00 0.00 34 1024.3
20260510214524 21 64 9.7 35.4 0.00 0.00 0.00 35 1024.3
20260510213009 22 73 11.3 29.0 0.00 0.00 0.00 32 1024.5
20260510211510 23 94 12.9 27.4 0.00 0.00 0.00 31 1024.5
20260510210018 21 51 14.5 25.7 0.00 0.00 0.00 33 1024.6
20260510204524 21 79 9.7 25.7 0.00 0.00 0.00 33 1024.4
20260510203034 22 94 17.7 25.7 0.00 0.00 0.00 30 1024.2
20260510201511 23 103 17.7 27.4 0.00 0.00 0.00 27 1024.3
20260510200020 25 86 14.5 24.1 0.00 0.00 0.00 26 1023.9
20260510194521 23 76 12.9 22.5 0.00 0.00 0.00 28 1023.6
20260510193027 25 123 9.7 22.5 0.00 0.00 0.00 26 1023.8
20260510191527 23 79 9.7 19.3 0.00 0.00 0.00 31 1023.9
20260510190019 21 136 9.7 14.5 0.00 0.00 0.00 29 1024.1
20260510184518 21 34 4.8 12.9 0.00 0.00 0.00 31 1023.9
20260510183024 22 76 4.8 16.1 0.00 0.00 0.00 27 1024.0
20260510181528 22 96 4.8 14.5 0.00 0.00 0.00 31 1024.1
20260510180012 20 53 3.2 17.7 0.00 0.00 0.00 32 1024.1
20260510174517 20 50 3.2 16.1 0.00 0.00 0.00 32 1024.2
20260510173022 20 65 6.4 19.3 0.00 0.00 0.00 32 1024.0
20260510171524 21 63 8.0 19.3 0.00 0.00 0.00 30 1024.0
20260510170027 23 51 8.0 19.3 0.00 0.00 0.00 27 1023.7
20260510164515 22 38 8.0 17.7 0.00 0.00 0.00 25 1023.6
20260510163020 22 96 11.3 19.3 0.00 0.00 0.00 26 1023.7
20260510161527 21 98 8.0 17.7 0.00 0.00 0.00 27 1023.6
20260510160034 21 57 6.4 20.9 0.00 0.00 0.00 28 1023.6
20260510154526 21 88 4.8 14.5 0.00 0.00 0.00 28 1023.5
20260510153016 20 72 8.0 16.1 0.00 0.00 0.00 29 1023.3
20260510151522 20 91 8.0 19.3 0.00 0.00 0.00 30 1023.4
20260510150006 19 115 4.8 12.9 0.00 0.00 0.00 32 1023.4
20260510144518 18 123 8.0 17.7 0.00 0.00 0.00 31 1023.2
20260510143020 18 104 4.8 12.9 0.00 0.00 0.00 32 1023.1
20260510141526 18 92 4.8 16.1 0.00 0.00 0.00 32 1022.9
20260510140004 17 85 6.4 19.3 0.00 0.00 0.00 32 1022.8
20260510134507 16 103 3.2 6.4 0.00 0.00 0.00 34 1022.6
20260510133016 15 33 0.0 4.8 0.00 0.00 0.00 36 1022.6
20260510131516 13 30 1.6 6.4 0.00 0.00 0.00 37 1022.4
20260510130024 13 352 4.8 8.0 0.00 0.00 0.00 37 1022.3
20260510124508 12 338 3.2 6.4 0.00 0.00 0.00 37 1022.1
20260510123010 13 51 0.0 3.2 0.00 0.00 0.00 35 1021.9
20260510121513 13 297 0.0 1.6 0.00 0.00 0.00 34 1021.6
20260510120021 14 82 0.0 4.8 0.00 0.00 0.00 33 1021.5
20260510114534 15 88 1.6 9.7 0.00 0.00 0.00 32 1021.3
20260510113008 15 101 4.8 14.5 0.00 0.00 0.00 32 1021.4
20260510111514 15 119 3.2 11.3 0.00 0.00 0.00 32 1021.7
20260510110021 12 202 1.6 6.4 0.00 0.00 0.00 31 1022.0
20260510104532 12 360 0.0 0.0 0.00 0.00 0.00 33 1021.4
20260510103026 12 102 0.0 0.0 0.00 0.00 0.00 33 1021.0
20260510101512 13 332 0.0 0.0 0.00 0.00 0.00 30 1020.7
20260510100018 14 332 0.0 0.0 0.00 0.00 0.00 29 1020.6
20260510094533 13 332 0.0 4.8 0.00 0.00 0.00 28 1020.5
20260510093025 13 344 3.2 4.8 0.00 0.00 0.00 29 1020.5
20260510091529 13 316 0.0 0.0 0.00 0.00 0.00 29 1020.3
20260510090014 12 302 0.0 0.0 0.00 0.00 0.00 29 1020.4
20260510084518 12 314 0.0 0.0 0.00 0.00 0.00 27 1020.2
20260510083027 13 314 0.0 0.0 0.00 0.00 0.00 26 1019.8
20260510081537 14 314 0.0 0.0 0.00 0.00 0.00 25 1019.7
20260510080008 15 307 0.0 0.0 0.00 0.00 0.00 24 1019.6
20260510074510 15 297 1.6 4.8 0.00 0.00 0.00 23 1019.4
20260510073012 15 286 1.6 3.2 0.00 0.00 0.00 23 1019.5
20260510071506 15 298 1.6 3.2 0.00 0.00 0.00 22 1019.5
20260510070013 16 306 3.2 6.4 0.00 0.00 0.00 21 1019.4
20260510064516 16 309 0.0 4.8 0.00 0.00 0.00 20 1019.2
20260510063017 16 313 1.6 11.3 0.00 0.00 0.00 20 1019.3
20260510061523 16 328 4.8 11.3 0.00 0.00 0.00 19 1019.1
20260510060007 16 317 6.4 16.1 0.00 0.00 0.00 20 1019.1
20260510054514 16 327 4.8 9.7 0.00 0.00 0.00 20 1018.7
20260510053014 17 314 3.2 8.0 0.00 0.00 0.00 18 1018.5
20260510051527 17 313 3.2 11.3 0.00 0.00 0.00 18 1018.4
20260510050020 17 297 4.8 11.3 0.00 0.00 0.00 17 1018.4
20260510044514 18 328 6.4 11.3 0.00 0.00 0.00 17 1018.4
20260510043022 18 300 4.8 12.9 0.00 0.00 0.00 16 1018.3
20260510041518 18 252 3.2 9.7 0.00 0.00 0.00 17 1018.4
20260510040024 19 288 0.0 6.4 0.00 0.00 0.00 17 1018.4
20260510034508 20 297 1.6 11.3 0.00 0.00 0.00 17 1018.1
20260510033013 20 237 1.6 22.5 0.00 0.00 0.00 17 1018.2
20260510031531 20 224 1.6 4.8 0.00 0.00 0.00 18 1018.2
20260510030026 20 252 0.0 14.5 0.00 0.00 0.00 18 1018.0
20260510024524 21 284 0.0 16.1 0.00 0.00 0.00 18 1018.0
20260510023014 21 230 6.4 19.3 0.00 0.00 0.00 17 1017.9
20260510021528 21 265 0.0 3.2 0.00 0.00 0.00 17 1017.6
20260510020020 21 196 3.2 14.5 0.00 0.00 0.00 16 1017.5
20260510014522 22 307 4.8 12.9 0.00 0.00 0.00 16 1017.3
20260510013022 22 234 11.3 27.4 0.00 0.00 0.00 15 1017.0
20260510011513 23 243 6.4 16.1 0.00 0.00 0.00 14 1016.5
20260510010003 23 200 4.8 11.3 0.00 0.00 0.00 13 1016.5
20260510004504 24 194 8.0 20.9 0.00 0.00 0.00 13 1016.5
20260510003008 24 296 9.7 19.3 0.00 0.00 0.00 12 1016.4
20260510001510 24 183 4.8 12.9 0.00 0.00 0.00 12 1016.5
20260510000021 25 260 1.6 16.1 0.00 0.00 0.00 1016.6
20260509234507 26 273 12.9 22.5 0.00 0.00 0.00 10 1016.6
20260509233006 26 243 6.4 30.6 0.00 0.00 0.00 11 1016.7
20260509231507 26 289 16.1 30.6 0.00 0.00 0.00 10 1016.5